sat.trackr.live / text

‹ back to catalog

ICEYE-X11

NORAD 48918 · 2021-059AR

PAYLOAD ACTIVE UNKNOWN

§ Identity

Operator
Country
FIN
Launch date
2021-06-30
Launch site
AFETR
Launch vehicle
Mass (kg)
RCS (m²)

External: N2YO · Heavens-Above · Gunter

§ Orbital elements

Epoch: 2026-05-25T07:10:41.420064Z

Period
90.54 min
Inclination
97.6372°
Eccentricity
0.0002679
Mean motion
15.90387983 rev/d
Perigee alt
299.4 km
Apogee alt
303.0 km
Semi-major
6,679.3 km
B*
5.5112e-4
RAAN
341.7126°
Arg perigee
70.2644°
Mean anomaly
289.8917°
Rev number
27,434

§ Raw data

ICEYE-X111 48918U 21059AR  26145.29909051  .00166457  12327-4  55112-3 0  99952 48918  97.6372 341.7126 0002679  70.2644 289.8917 15.90387983274344

JSON: /api/v1/satellites/48918 · /tle

For live sub-satellite position, see the globe view (requires WebGL).

§ Visibility from observer

Set your observer location to see the next 7 days of passes ≥ 10°. The values pass through the URL so the page stays shareable.

No JS? Fill the form by hand. The geolocation button needs JavaScript.